| time (UTC) | temp C | wind direction | speed KPH | gust KPH | rain 1hr cm | rain 24hr cm | rain mn cm | humidity % | barometer mb |
| 20260505091018 | 11 | 229 | 1.6 | 6.4 | 0.00 | 0.00 | 0.00 | 88 | 1016.2 |
| 20260505090518 | 11 | 223 | 3.2 | 8.0 | 0.00 | 0.00 | 0.00 | 88 | 1016.2 |
| 20260505090048 | 11 | 229 | 3.2 | 9.7 | 0.00 | 0.00 | 0.00 | 88 | 1016.2 |
| 20260505085519 | 11 | 230 | 3.2 | 9.7 | 0.00 | 0.00 | 0.00 | 88 | 1016.2 |
| 20260505085019 | 11 | 224 | 1.6 | 8.0 | 0.00 | 0.00 | 0.00 | 88 | 1016.2 |
| 20260505084535 | 11 | 0 | 1.6 | 4.8 | 0.00 | 0.00 | 0.00 | 88 | 1016.2 |
| 20260505084018 | 11 | 0 | 0.0 | 6.4 | 0.00 | 0.00 | 0.00 | 88 | 1016.2 |
| 20260505083518 | 11 | 241 | 1.6 | 6.4 | 0.00 | 0.00 | 0.00 | 88 | 1016.2 |
| 20260505083034 | 11 | 220 | 1.6 | 6.4 | 0.00 | 0.00 | 0.00 | 88 | 1016.2 |
| 20260505082522 | 11 | 172 | 1.6 | 6.4 | 0.00 | 0.00 | 0.00 | 88 | 1016.3 |
| 20260505082018 | 11 | 179 | 1.6 | 6.4 | 0.00 | 0.00 | 0.00 | 87 | 1016.3 |
| 20260505081538 | 11 | 181 | 1.6 | 8.0 | 0.00 | 0.00 | 0.00 | 87 | 1016.2 |
| 20260505081018 | 11 | 169 | 1.6 | 8.0 | 0.00 | 0.00 | 0.00 | 87 | 1016.2 |
| 20260505080518 | 11 | 0 | 0.0 | 6.4 | 0.00 | 0.00 | 0.00 | 87 | 1016.1 |
| 20260505080049 | 11 | 178 | 1.6 | 6.4 | 0.00 | 0.00 | 0.00 | 87 | 1016.2 |
| 20260505075517 | 12 | 204 | 0.0 | 4.8 | 0.00 | 0.00 | 0.00 | 86 | 1016.1 |
| 20260505075018 | 12 | 234 | 1.6 | 4.8 | 0.00 | 0.00 | 0.00 | 86 | 1016.2 |
| 20260505074535 | 12 | 0 | 1.6 | 4.8 | 0.00 | 0.00 | 0.00 | 86 | 1016.0 |
| 20260505074019 | 12 | 0 | 1.6 | 6.4 | 0.00 | 0.00 | 0.00 | 85 | 1016.0 |
| 20260505073519 | 12 | 0 | 0.0 | 6.4 | 0.00 | 0.00 | 0.00 | 85 | 1015.9 |
| 20260505073048 | 12 | 202 | 1.6 | 8.0 | 0.00 | 0.00 | 0.00 | 85 | 1015.9 |
| 20260505072518 | 12 | 206 | 1.6 | 8.0 | 0.00 | 0.00 | 0.00 | 85 | 1015.9 |
| 20260505072018 | 12 | 230 | 3.2 | 8.0 | 0.00 | 0.00 | 0.00 | 85 | 1015.8 |
| 20260505071533 | 12 | 193 | 3.2 | 8.0 | 0.00 | 0.00 | 0.00 | 84 | 1015.8 |
| 20260505071018 | 12 | 202 | 1.6 | 6.4 | 0.00 | 0.00 | 0.00 | 84 | 1015.7 |
| 20260505070518 | 12 | 240 | 1.6 | 6.4 | 0.00 | 0.00 | 0.00 | 83 | 1015.5 |
| 20260505070033 | 12 | 227 | 3.2 | 6.4 | 0.00 | 0.00 | 0.00 | 83 | 1015.5 |
| 20260505065518 | 12 | 215 | 1.6 | 6.4 | 0.00 | 0.00 | 0.00 | 83 | 1015.5 |
| 20260505065018 | 13 | 223 | 1.6 | 6.4 | 0.00 | 0.00 | 0.00 | 82 | 1015.5 |
| 20260505064537 | 13 | 221 | 3.2 | 6.4 | 0.00 | 0.00 | 0.00 | 82 | 1015.4 |
| 20260505064018 | 13 | 229 | 3.2 | 6.4 | 0.00 | 0.00 | 0.00 | 82 | 1015.3 |
| 20260505063522 | 13 | 200 | 0.0 | 4.8 | 0.00 | 0.00 | 0.00 | 81 | 1015.3 |
| 20260505063036 | 13 | 219 | 1.6 | 4.8 | 0.00 | 0.00 | 0.00 | 81 | 1015.2 |
| 20260505062518 | 13 | 239 | 0.0 | 4.8 | 0.00 | 0.00 | 0.00 | 81 | 1015.2 |
| 20260505062017 | 13 | 0 | 0.0 | 0.0 | 0.00 | 0.00 | 0.00 | 80 | 1015.1 |
| 20260505061539 | 13 | 0 | 0.0 | 0.0 | 0.00 | 0.00 | 0.00 | 80 | 1015.0 |
| 20260505061020 | 13 | 0 | 0.0 | 3.2 | 0.00 | 0.00 | 0.00 | 79 | 1015.0 |
| 20260505060518 | 14 | 0 | 0.0 | 3.2 | 0.00 | 0.00 | 0.00 | 79 | 1014.9 |
| 20260505060037 | 14 | 0 | 0.0 | 4.8 | 0.00 | 0.00 | 0.00 | 78 | 1014.9 |
| 20260505055520 | 14 | 0 | 0.0 | 4.8 | 0.00 | 0.00 | 0.00 | 78 | 1014.8 |
| 20260505055015 | 14 | 0 | 0.0 | 4.8 | 0.00 | 0.00 | 0.00 | 77 | 1014.8 |
| 20260505054538 | 15 | 0 | 0.0 | 1.6 | 0.00 | 0.00 | 0.00 | 76 | 1014.7 |
| 20260505054017 | 15 | 0 | 0.0 | 3.2 | 0.00 | 0.00 | 0.00 | 76 | 1014.7 |
| 20260505053518 | 15 | 0 | 0.0 | 3.2 | 0.00 | 0.00 | 0.00 | 75 | 1014.7 |
| 20260505053037 | 15 | 0 | 0.0 | 6.4 | 0.00 | 0.00 | 0.00 | 75 | 1014.7 |
| 20260505052521 | 15 | 0 | 0.0 | 6.4 | 0.00 | 0.00 | 0.00 | 74 | 1014.6 |
| 20260505052020 | 15 | 287 | 1.6 | 6.4 | 0.00 | 0.00 | 0.00 | 73 | 1014.6 |
| 20260505051536 | 15 | 254 | 1.6 | 6.4 | 0.00 | 0.00 | 0.00 | 73 | 1014.4 |
| 20260505051019 | 16 | 244 | 1.6 | 6.4 | 0.00 | 0.00 | 0.00 | 73 | 1014.4 |
| 20260505050518 | 16 | 227 | 0.0 | 8.0 | 0.00 | 0.00 | 0.00 | 72 | 1014.4 |
| 20260505050117 | 16 | 251 | 1.6 | 12.9 | 0.00 | 0.00 | 0.00 | 71 | 1014.3 |
| 20260505041549 | 17 | 244 | 3.2 | 14.5 | 0.00 | 0.00 | 0.00 | 67 | 1013.8 |
| 20260505041018 | 17 | 219 | 4.8 | 14.5 | 0.00 | 0.00 | 0.00 | 66 | 1013.8 |
| 20260505040520 | 18 | 273 | 4.8 | 14.5 | 0.00 | 0.00 | 0.00 | 66 | 1013.6 |
| 20260505040034 | 18 | 220 | 6.4 | 14.5 | 0.00 | 0.00 | 0.00 | 65 | 1013.6 |
| 20260505035518 | 18 | 211 | 4.8 | 12.9 | 0.00 | 0.00 | 0.00 | 65 | 1013.6 |
| 20260505035018 | 18 | 225 | 4.8 | 12.9 | 0.00 | 0.00 | 0.00 | 64 | 1013.5 |
| 20260505034537 | 18 | 222 | 4.8 | 12.9 | 0.00 | 0.00 | 0.00 | 64 | 1013.3 |
| 20260505034020 | 19 | 313 | 3.2 | 16.1 | 0.00 | 0.00 | 0.00 | 63 | 1013.2 |
| 20260505033518 | 19 | 223 | 1.6 | 16.1 | 0.00 | 0.00 | 0.00 | 62 | 1013.2 |
| 20260505033042 | 19 | 267 | 6.4 | 16.1 | 0.00 | 0.00 | 0.00 | 61 | 1013.1 |
| 20260505032523 | 20 | 229 | 4.8 | 12.9 | 0.00 | 0.00 | 0.00 | 60 | 1013.1 |
| 20260505032019 | 20 | 273 | 6.4 | 12.9 | 0.00 | 0.00 | 0.00 | 59 | 1013.0 |
| 20260505031544 | 20 | 244 | 1.6 | 11.3 | 0.00 | 0.00 | 0.00 | 58 | 1012.9 |
| 20260505031018 | 20 | 246 | 3.2 | 14.5 | 0.00 | 0.00 | 0.00 | 57 | 1012.9 |
| 20260505030518 | 21 | 277 | 3.2 | 14.5 | 0.00 | 0.00 | 0.00 | 57 | 1012.8 |
| 20260505030040 | 21 | 225 | 3.2 | 14.5 | 0.00 | 0.00 | 0.00 | 56 | 1012.7 |
| 20260505025518 | 21 | 254 | 4.8 | 14.5 | 0.00 | 0.00 | 0.00 | 55 | 1012.7 |
| 20260505025020 | 21 | 274 | 3.2 | 11.3 | 0.00 | 0.00 | 0.00 | 55 | 1012.6 |
| 20260505024530 | 22 | 262 | 3.2 | 16.1 | 0.00 | 0.00 | 0.00 | 55 | 1012.5 |
| 20260505024018 | 22 | 250 | 3.2 | 16.1 | 0.00 | 0.00 | 0.00 | 55 | 1012.5 |
| 20260505023519 | 22 | 252 | 4.8 | 14.5 | 0.00 | 0.00 | 0.00 | 54 | 1012.5 |
| 20260505023043 | 22 | 261 | 3.2 | 11.3 | 0.00 | 0.00 | 0.00 | 54 | 1012.4 |
| 20260505022521 | 22 | 106 | 1.6 | 9.7 | 0.00 | 0.00 | 0.00 | 53 | 1012.4 |
| 20260505022018 | 23 | 0 | 0.0 | 12.9 | 0.00 | 0.00 | 0.00 | 52 | 1012.4 |
| 20260505021540 | 23 | 0 | 4.8 | 12.9 | 0.00 | 0.00 | 0.00 | 51 | 1012.4 |
| 20260505021018 | 23 | 0 | 3.2 | 11.3 | 0.00 | 0.00 | 0.00 | 50 | 1012.4 |
| 20260505020518 | 24 | 296 | 3.2 | 12.9 | 0.00 | 0.00 | 0.00 | 49 | 1012.5 |
| 20260505020036 | 24 | 212 | 3.2 | 12.9 | 0.00 | 0.00 | 0.00 | 47 | 1012.4 |
| 20260505015518 | 24 | 236 | 1.6 | 8.0 | 0.00 | 0.00 | 0.00 | 47 | 1012.5 |
| 20260505015018 | 24 | 271 | 1.6 | 9.7 | 0.00 | 0.00 | 0.00 | 47 | 1012.4 |
| 20260505014553 | 24 | 250 | 1.6 | 16.1 | 0.00 | 0.00 | 0.00 | 46 | 1012.4 |
| 20260505014018 | 24 | 226 | 3.2 | 16.1 | 0.00 | 0.00 | 0.00 | 46 | 1012.4 |
| 20260505013522 | 25 | 213 | 1.6 | 11.3 | 0.00 | 0.00 | 0.00 | 45 | 1012.4 |
| 20260505013031 | 25 | 246 | 1.6 | 16.1 | 0.00 | 0.00 | 0.00 | 44 | 1012.5 |
| 20260505012518 | 25 | 215 | 6.4 | 16.1 | 0.00 | 0.00 | 0.00 | 44 | 1012.4 |
| 20260505012018 | 25 | 282 | 3.2 | 11.3 | 0.00 | 0.00 | 0.00 | 44 | 1012.4 |
| 20260505011537 | 25 | 5 | 1.6 | 6.4 | 0.00 | 0.00 | 0.00 | 43 | 1012.5 |
| 20260505011021 | 25 | 246 | 1.6 | 12.9 | 0.00 | 0.00 | 0.00 | 43 | 1012.5 |
| 20260505010517 | 25 | 0 | 0.0 | 12.9 | 0.00 | 0.00 | 0.00 | 41 | 1012.5 |
| 20260505010036 | 25 | 235 | 6.4 | 12.9 | 0.00 | 0.00 | 0.00 | 40 | 1012.5 |
| 20260505005519 | 25 | 281 | 1.6 | 9.7 | 0.00 | 0.00 | 0.00 | 38 | 1012.6 |
| 20260505005019 | 25 | 290 | 1.6 | 8.0 | 0.00 | 0.00 | 0.00 | 39 | 1012.6 |
| 20260505004539 | 25 | 333 | 1.6 | 11.3 | 0.00 | 0.00 | 0.00 | 35 | 1012.6 |
| 20260505004018 | 25 | 0 | 0.0 | 11.3 | 0.00 | 0.00 | 0.00 | 37 | 1012.7 |
| 20260505003518 | 25 | 251 | 1.6 | 9.7 | 0.00 | 0.00 | 0.00 | 35 | 1012.6 |
| 20260505003035 | 26 | 241 | 3.2 | 12.9 | 0.00 | 0.00 | 0.00 | 35 | 1012.6 |
| 20260505002518 | 26 | 261 | 1.6 | 12.9 | 0.00 | 0.00 | 0.00 | 35 | 1012.5 |
| 20260505002018 | 26 | 278 | 3.2 | 17.7 | 0.00 | 0.00 | 0.00 | 36 | 1012.5 |
| 20260505001530 | 26 | 242 | 6.4 | 17.7 | 0.00 | 0.00 | 0.00 | 36 | 1012.6 |
| 20260505001017 | 26 | 257 | 6.4 | 16.1 | 0.00 | 0.00 | 0.00 | 35 | 1012.5 |
| 20260505000520 | 26 | 234 | 4.8 | 16.1 | 0.00 | 0.00 | 0.00 | 35 | 1012.5 |
| 20260505000040 | 26 | 231 | 4.8 | 16.1 | 0.00 | 0.00 | 0.00 | 34 | 1012.6 |
| 20260504235519 | 26 | 252 | 8.0 | 16.1 | 0.00 | 0.00 | 0.00 | 34 | 1012.5 |
| 20260504235019 | 26 | 213 | 1.6 | 14.5 | 0.00 | 0.00 | 0.00 | 33 | 1012.5 |
| 20260504234546 | 26 | 309 | 3.2 | 14.5 | 0.00 | 0.00 | 0.00 | 32 | 1012.5 |
| 20260504234018 | 26 | 251 | 4.8 | 14.5 | 0.00 | 0.00 | 0.00 | 31 | 1012.5 |
| 20260504233518 | 26 | 274 | 4.8 | 14.5 | 0.00 | 0.00 | 0.00 | 31 | 1012.6 |
| 20260504233035 | 26 | 34 | 3.2 | 11.3 | 0.00 | 0.00 | 0.00 | 34 | 1012.5 |
| 20260504232520 | 26 | 273 | 3.2 | 9.7 | 0.00 | 0.00 | 0.00 | 34 | 1012.5 |
| 20260504232018 | 26 | 273 | 3.2 | 14.5 | 0.00 | 0.00 | 0.00 | 33 | 1012.5 |
| 20260504231537 | 26 | 182 | 4.8 | 17.7 | 0.00 | 0.00 | 0.00 | 31 | 1012.7 |
| 20260504231018 | 26 | 217 | 8.0 | 17.7 | 0.00 | 0.00 | 0.00 | 32 | 1012.7 |
| 20260504230518 | 26 | 296 | 8.0 | 16.1 | 0.00 | 0.00 | 0.00 | 32 | 1012.8 |
| 20260504230031 | 26 | 249 | 3.2 | 14.5 | 0.00 | 0.00 | 0.00 | 32 | 1012.8 |
| 20260504225518 | 26 | 215 | 3.2 | 12.9 | 0.00 | 0.00 | 0.00 | 34 | 1012.9 |
| 20260504225017 | 26 | 254 | 4.8 | 14.5 | 0.00 | 0.00 | 0.00 | 33 | 1013.0 |
| 20260504224536 | 26 | 350 | 1.6 | 14.5 | 0.00 | 0.00 | 0.00 | 34 | 1013.0 |
| 20260504224019 | 26 | 244 | 1.6 | 11.3 | 0.00 | 0.00 | 0.00 | 35 | 1013.0 |
| 20260504223518 | 26 | 292 | 3.2 | 11.3 | 0.00 | 0.00 | 0.00 | 36 | 1013.0 |
| 20260504223042 | 25 | 220 | 4.8 | 11.3 | 0.00 | 0.00 | 0.00 | 38 | 1013.0 |
| 20260504222518 | 25 | 258 | 1.6 | 14.5 | 0.00 | 0.00 | 0.00 | 38 | 1013.1 |
| 20260504222019 | 25 | 313 | 3.2 | 14.5 | 0.00 | 0.00 | 0.00 | 37 | 1013.1 |
| 20260504221537 | 25 | 11 | 3.2 | 9.7 | 0.00 | 0.00 | 0.00 | 39 | 1013.1 |
| 20260504221018 | 26 | 46 | 3.2 | 14.5 | 0.00 | 0.00 | 0.00 | 39 | 1013.2 |
| 20260504220518 | 26 | 226 | 4.8 | 16.1 | 0.00 | 0.00 | 0.00 | 39 | 1013.2 |
| 20260504220036 | 26 | 24 | 3.2 | 16.1 | 0.00 | 0.00 | 0.00 | 39 | 1013.3 |
| 20260504215518 | 25 | 231 | 3.2 | 16.1 | 0.00 | 0.00 | 0.00 | 39 | 1013.2 |
| 20260504215017 | 25 | 238 | 4.8 | 17.7 | 0.00 | 0.00 | 0.00 | 38 | 1013.3 |
| 20260504214536 | 25 | 0 | 1.6 | 19.3 | 0.00 | 0.00 | 0.00 | 41 | 1013.3 |
| 20260504214018 | 25 | 230 | 9.7 | 19.3 | 0.00 | 0.00 | 0.00 | 39 | 1013.3 |
| 20260504213518 | 25 | 202 | 3.2 | 14.5 | 0.00 | 0.00 | 0.00 | 42 | 1013.3 |
| 20260504213054 | 25 | 226 | 6.4 | 16.1 | 0.00 | 0.00 | 0.00 | 40 | 1013.3 |
| 20260504212518 | 25 | 228 | 8.0 | 16.1 | 0.00 | 0.00 | 0.00 | 41 | 1013.4 |
| 20260504212018 | 25 | 5 | 6.4 | 16.1 | 0.00 | 0.00 | 0.00 | 44 | 1013.4 |
| 20260504211538 | 25 | 236 | 1.6 | 17.7 | 0.00 | 0.00 | 0.00 | 42 | 1013.5 |
| 20260504211021 | 25 | 246 | 9.7 | 20.9 | 0.00 | 0.00 | 0.00 | 42 | 1013.4 |
| 20260504210518 | 25 | 0 | 6.4 | 20.9 | 0.00 | 0.00 | 0.00 | 44 | 1013.5 |
| 20260504210038 | 25 | 229 | 6.4 | 20.9 | 0.00 | 0.00 | 0.00 | 42 | 1013.5 |
| 20260504205518 | 25 | 242 | 8.0 | 17.7 | 0.00 | 0.00 | 0.00 | 42 | 1013.6 |
| 20260504205018 | 25 | 266 | 4.8 | 14.5 | 0.00 | 0.00 | 0.00 | 41 | 1013.7 |
| 20260504204534 | 25 | 230 | 3.2 | 14.5 | 0.00 | 0.00 | 0.00 | 41 | 1013.6 |
| 20260504204018 | 25 | 279 | 6.4 | 14.5 | 0.00 | 0.00 | 0.00 | 43 | 1013.6 |
| 20260504203518 | 25 | 223 | 4.8 | 14.5 | 0.00 | 0.00 | 0.00 | 43 | 1013.6 |
| 20260504203035 | 25 | 136 | 3.2 | 16.1 | 0.00 | 0.00 | 0.00 | 43 | 1013.6 |
| 20260504202518 | 25 | 247 | 6.4 | 16.1 | 0.00 | 0.00 | 0.00 | 45 | 1013.6 |
| 20260504202017 | 25 | 220 | 4.8 | 12.9 | 0.00 | 0.00 | 0.00 | 43 | 1013.6 |
| 20260504201534 | 25 | 211 | 4.8 | 12.9 | 0.00 | 0.00 | 0.00 | 43 | 1013.6 |
| 20260504201022 | 25 | 267 | 3.2 | 12.9 | 0.00 | 0.00 | 0.00 | 45 | 1013.6 |
| 20260504200518 | 24 | 247 | 3.2 | 11.3 | 0.00 | 0.00 | 0.00 | 47 | 1013.7 |
| 20260504200036 | 24 | 360 | 1.6 | 17.7 | 0.00 | 0.00 | 0.00 | 45 | 1013.7 |
| 20260504195518 | 24 | 246 | 4.8 | 17.7 | 0.00 | 0.00 | 0.00 | 44 | 1013.8 |
| 20260504195018 | 25 | 236 | 4.8 | 17.7 | 0.00 | 0.00 | 0.00 | 40 | 1013.9 |
| 20260504194542 | 25 | 82 | 1.6 | 11.3 | 0.00 | 0.00 | 0.00 | 42 | 1013.8 |
| 20260504194018 | 25 | 316 | 4.8 | 11.3 | 0.00 | 0.00 | 0.00 | 41 | 1013.8 |
| 20260504193519 | 25 | 106 | 3.2 | 12.9 | 0.00 | 0.00 | 0.00 | 42 | 1013.9 |
| 20260504193043 | 25 | 263 | 1.6 | 12.9 | 0.00 | 0.00 | 0.00 | 42 | 1013.9 |
| 20260504192518 | 24 | 227 | 4.8 | 11.3 | 0.00 | 0.00 | 0.00 | 43 | 1013.9 |
| 20260504192018 | 24 | 0 | 3.2 | 11.3 | 0.00 | 0.00 | 0.00 | 43 | 1014.0 |
| 20260504191534 | 25 | 27 | 4.8 | 11.3 | 0.00 | 0.00 | 0.00 | 42 | 1014.0 |
| 20260504191021 | 25 | 318 | 1.6 | 12.9 | 0.00 | 0.00 | 0.00 | 43 | 1014.0 |
| 20260504190519 | 24 | 137 | 3.2 | 12.9 | 0.00 | 0.00 | 0.00 | 42 | 1014.0 |
| 20260504190033 | 23 | 209 | 6.4 | 12.9 | 0.00 | 0.00 | 0.00 | 44 | 1014.1 |
| 20260504185522 | 23 | 235 | 3.2 | 9.7 | 0.00 | 0.00 | 0.00 | 44 | 1014.0 |
| 20260504185019 | 23 | 201 | 1.6 | 14.5 | 0.00 | 0.00 | 0.00 | 44 | 1014.1 |
| 20260504184536 | 23 | 222 | 4.8 | 14.5 | 0.00 | 0.00 | 0.00 | 45 | 1014.2 |
| 20260504184019 | 23 | 248 | 1.6 | 11.3 | 0.00 | 0.00 | 0.00 | 48 | 1014.1 |
| 20260504183519 | 22 | 0 | 0.0 | 14.5 | 0.00 | 0.00 | 0.00 | 50 | 1014.2 |
| 20260504183035 | 22 | 231 | 6.4 | 14.5 | 0.00 | 0.00 | 0.00 | 49 | 1014.3 |
| 20260504182523 | 23 | 269 | 3.2 | 12.9 | 0.00 | 0.00 | 0.00 | 45 | 1014.3 |
| 20260504182020 | 23 | 42 | 1.6 | 8.0 | 0.00 | 0.00 | 0.00 | 49 | 1014.2 |
| 20260504181535 | 22 | 254 | 0.0 | 9.7 | 0.00 | 0.00 | 0.00 | 47 | 1014.3 |
| 20260504181018 | 22 | 236 | 1.6 | 11.3 | 0.00 | 0.00 | 0.00 | 48 | 1014.3 |
| 20260504180520 | 22 | 218 | 4.8 | 11.3 | 0.00 | 0.00 | 0.00 | 45 | 1014.3 |
| 20260504180035 | 22 | 0 | 3.2 | 11.3 | 0.00 | 0.00 | 0.00 | 48 | 1014.2 |
| 20260504175518 | 22 | 219 | 3.2 | 12.9 | 0.00 | 0.00 | 0.00 | 50 | 1014.2 |
| 20260504175023 | 22 | 224 | 3.2 | 12.9 | 0.00 | 0.00 | 0.00 | 51 | 1014.2 |
| 20260504174536 | 21 | 257 | 3.2 | 12.9 | 0.00 | 0.00 | 0.00 | 52 | 1014.2 |
| 20260504174019 | 21 | 293 | 3.2 | 12.9 | 0.00 | 0.00 | 0.00 | 53 | 1014.1 |
| 20260504173519 | 21 | 220 | 3.2 | 9.7 | 0.00 | 0.00 | 0.00 | 52 | 1014.2 |
| 20260504173045 | 21 | 255 | 0.0 | 9.7 | 0.00 | 0.00 | 0.00 | 55 | 1014.2 |
| 20260504172518 | 21 | 215 | 3.2 | 11.3 | 0.00 | 0.00 | 0.00 | 55 | 1014.1 |
| 20260504172018 | 20 | 263 | 4.8 | 11.3 | 0.00 | 0.00 | 0.00 | 54 | 1014.1 |
| 20260504171535 | 20 | 232 | 1.6 | 9.7 | 0.00 | 0.00 | 0.00 | 55 | 1014.1 |
| 20260504171019 | 20 | 229 | 3.2 | 9.7 | 0.00 | 0.00 | 0.00 | 55 | 1014.1 |
| 20260504170518 | 20 | 248 | 3.2 | 9.7 | 0.00 | 0.00 | 0.00 | 54 | 1014.1 |
| 20260504151018 | 17 | 0 | 0.0 | 3.2 | 0.00 | 0.00 | 0.00 | 59 | 1013.7 |
| 20260504150518 | 17 | 0 | 0.0 | 0.0 | 0.00 | 0.00 | 0.00 | 61 | 1013.6 |
| 20260504141020 | 13 | 0 | 0.0 | 0.0 | 0.00 | 0.00 | 0.00 | 73 | 1013.2 |
| 20260504140519 | 12 | 0 | 0.0 | 0.0 | 0.00 | 0.00 | 0.00 | 76 | 1013.2 |
| 20260504130520 | 11 | 0 | 0.0 | 1.6 | 0.00 | 0.00 | 0.00 | 79 | 1012.7 |
| 20260504110519 | 12 | 0 | 0.0 | 0.0 | 0.00 | 0.00 | 0.00 | 75 | 1012.5 |
| 20260504100518 | 12 | 0 | 0.0 | 0.0 | 0.00 | 0.00 | 0.00 | 72 | 1012.4 |